This demonstration page uses our WeatherBlox Daily Observations layout. Learn more.

Left ArrowRight Arrow

Hourly Observations for February 28, 2016

Temp ( °F °C ) Dew Point ( °F °C ) Humidity (%) Winds ( mph kmh ) Pressure ( in mb ) Visibility ( mi km ) Precip ( " mm )
12:59 am 00:59 Clear 40 4.4 25 -3.9 55 55 SSW 8 13 30.15 1021 10 16 0.00 0.00
1:59 am 01:59 Clear 40 4.4 26 -3.3 58 58 SSW 9 15 30.14 1021 10 16 0.00 0.00
2:59 am 02:59 Clear 39 3.9 27 -2.8 62 62 SW 7 11 30.14 1021 10 16 0.00 0.00
3:59 am 03:59 Clear 38 3.3 26 -3.3 62 62 SW 6 9 30.14 1021 10 16 0.00 0.00
4:59 am 04:59 Clear 37 2.8 27 -2.8 67 67 SW 5 7 30.14 1021 10 16 0.00 0.00
5:59 am 05:59 Clear 37 2.8 27 -2.8 67 67 SW 6 9 30.15 1021 10 16 0.00 0.00
6:59 am 06:59 Sunny 36 2.2 27 -2.8 70 70 SSW 5 7 30.16 1021 9 14 0.00 0.00
7:59 am 07:59 Sunny 41 5 28 -2.2 60 60 SSW 6 9 30.17 1022 10 16 0.00 0.00
8:59 am 08:59 Mostly Sunny 46 7.8 28 -2.2 50 50 WSW 7 11 30.17 1022 10 16 0.00 0.00
9:59 am 09:59 Sunny 52 11.1 29 -1.7 41 41 SW 8 13 30.15 1021 10 16 0.00 0.00
10:59 am 10:59 Sunny 57 13.9 30 -1.1 36 36 SW 8 13 30.14 1021 10 16 0.00 0.00
11:59 am 11:59 Sunny 61 16.1 31 -0.6 32 32 SW 8 13 30.11 1020 10 16 0.00 0.00
12:59 pm 12:59 Sunny 64 17.8 32 0 30 30 SW 13 20 30.07 1018 10 16 0.00 0.00
1:59 pm 13:59 Sunny 65 18.3 32 0 29 29 SW 14 22 30.04 1017 10 16 0.00 0.00
2:59 pm 14:59 Sunny 67 19.4 30 -1.1 25 25 WSW 16 26 30.01 1016 10 16 0.00 0.00
3:59 pm 15:59 Sunny 66 18.9 31 -0.6 27 27 SW 14 22 30.00 1016 10 16 0.00 0.00
4:59 pm 16:59 Sunny 65 18.3 31 -0.6 28 28 SW 13 20 29.99 1016 10 16 0.00 0.00
5:59 pm 17:59 Clear 62 16.7 31 -0.6 31 31 SW 9 15 29.99 1016 10 16 0.00 0.00
6:59 pm 18:59 Clear 59 15 31 -0.6 35 35 SSW 7 11 29.99 1016 10 16 0.00 0.00
7:59 pm 19:59 Clear 58 14.4 31 -0.6 36 36 SSW 9 15 29.99 1016 10 16 0.00 0.00
8:59 pm 20:59 Clear 58 14.4 30 -1.1 35 35 SSW 12 19 29.98 1015 10 16 0.00 0.00
9:59 pm 21:59 Clear 56 13.3 31 -0.6 39 39 SW 14 22 29.97 1015 10 16 0.00 0.00
10:59 pm 22:59 Clear 54 12.2 34 1.1 47 47 SSW 10 17 29.96 1015 10 16 0.00 0.00
11:59 pm 23:59 Clear 53 11.7 34 1.1 48 48 SSW 14 22 29.95 1014 10 16 0.00 0.00

Powered by AerisWeather